[[{"header":{"parameterUnit":"m.s-1","parameterCategory":1,"la1":30.2991,"la2":30.254,"lo1":-89.0895,"lo2":-89.0444,"dy":0.0017,"dx":0.0017,"nx":28,"ny":28,"refTime":"2024-08-09T09:00:00:Z","depth":0,"parameterNumber":2,"parameterNumberName":"U-component_of_WINDS"},"data":[0,0,0,0,0,0,0,0,0,0,0,0,0,0,0,0,0,0,0,0,0,0,0,0,0,0,0,0,0,0,0,0,0,0,0,0,0,0,0,0,0,0,0,0,0,0,0,0,0,0,0,0,0,0,0,0,0,0,1.0091,1.009,0,1.0044,1.0044,1.0043,1.0004,1.0003,1.0003,1.0002,0.9951,0.995,0.9949,0,0,0,0,0,0,0,0,0,0,0,0,0,1.0142,1.0141,1.0091,1.009,1.009,1.0045,1.0044,1.0043,1.0004,1.0003,1.0003,1.0002,0.9951,0.995,0.9949,0,0,0,0,0,0,0,0,0,0,0,0,0,1.011,1.0141,1.0091,1.0065,1.0062,1.0045,1.0044,1.0043,1.0004,1.0003,1.0003,1.0002,0.9952,0.995,0.9949,0.9953,0,0,0.9945,0.9944,0,0,0,0,0,0,0,0,1.0112,1.0108,1.0069,1.0066,1.0063,1.0029,1.0043,1.0013,1.0004,1.0026,1.0002,1.0002,0.9977,0.9974,0.9966,0.9951,0.9948,0.9944,0.9944,0.9943,0.9942,0,0,0,0,0,0,0,1.0114,1.011,1.0072,1.0068,1.0065,1.0054,1.0049,1.0037,1.0006,1.0024,1.0021,1.0016,0.9976,0.9968,0.9965,0.9948,0.9944,0.9943,0.9942,0.9942,0.9933,0.9934,0,0,0,0,0,0,1.0121,1.0112,1.0074,1.0071,1.0087,1.0054,1.0048,1.0041,1.0006,1.0,1.0017,1.0014,0.9971,0.9967,0.9963,0.9965,0.9943,0.9942,0.9941,0.9932,0.9933,0.9934,0,0,0,0,0,0,1.0122,1.0118,1.0076,1.0091,1.0085,1.0054,1.0046,1.004,1.0032,1.0,0.9994,1.0015,0.997,0.9965,0.9956,0.9963,0.9941,0.994,0.9932,0.9933,0.9933,0.997,0,0,0,0,0,0,1.0124,1.0119,1.0121,1.0091,1.0084,1.0071,1.0046,1.004,1.003,1.0027,0.9997,0.9991,0.9969,0.9958,0.9955,0.9961,0.9938,0.9931,0.9932,0.9933,0.9968,0.9972,0.9976,0,0,0,0,0,1.0126,1.0132,1.0121,1.0116,1.0086,1.0071,1.0067,1.0042,1.0031,1.0032,1.0012,0.9992,0.9963,0.9958,0.9953,0.9959,0.993,0.9932,0.9933,0.9967,0.9972,0.9976,0,0,0,0,0,0,1.0161,1.0127,1.0115,1.0112,1.0095,1.0064,1.0065,1.0048,1.0033,1.003,1.0,0.9993,0.9988,0.9972,0.9967,0.9961,0.9944,0.9945,0.9971,0.9976,0.9979,0.9983,0.9937,0,0,0,0,0,1.0169,1.0161,1.0131,1.0131,1.0124,1.0096,1.0089,1.0072,1.0052,1.0044,1.0023,1.0004,0.9991,0.9982,0.9968,0.9966,0.9959,0.9968,0.9972,0.9975,0.9976,0.9973,0.9977,0.9938,0.9938,0.9938,0,0,1.0184,1.0165,1.0161,1.0138,1.0123,1.0114,1.009,1.0082,1.0075,1.0043,1.0033,1.0017,0.9994,0.9989,0.9985,0.9976,0.9985,0.9977,0.998,0.9978,0.9975,0.9979,0.9982,0.9939,0.9939,0.9939,0,0,1.0207,1.0192,1.019,1.0176,1.0154,1.0136,1.0136,1.0109,1.0097,1.0088,1.0063,1.0054,1.0032,1.0017,1.0006,1.0025,1.0006,1.0021,1.004,1.0039,1.0042,1.0044,1.0051,1.0054,1.0022,1.0022,1.0022,0,1.0228,1.0216,1.0191,1.0185,1.0176,1.0148,1.0146,1.0133,1.0107,1.01,1.0091,1.0063,1.0045,1.0036,1.0041,1.0033,1.0031,1.0024,1.0044,1.0046,1.0048,1.0054,1.0056,1.0024,1.0024,1.0024,1.0023,0,1.0243,1.0234,1.0235,1.0213,1.0204,1.0199,1.0174,1.0167,1.0151,1.0134,1.0125,1.0103,1.0084,1.0081,1.0064,1.0069,1.0064,1.005,1.0032,1.0054,1.0059,1.0061,1.0027,1.0026,1.0025,1.0025,0,0,1.0285,1.0251,1.0251,1.0241,1.0216,1.0208,1.0203,1.0186,1.0181,1.0164,1.0158,1.0141,1.0127,1.0115,1.0097,1.0096,1.0112,1.0081,1.008,1.0087,1.0116,1.0127,1.013,1.01,1.01,1.0101,1.0118,0,1.0304,1.0294,1.0272,1.0268,1.026,1.0234,1.023,1.0213,1.0197,1.0187,1.0169,1.0157,1.014,1.0133,1.0131,1.0111,1.0117,1.0109,1.0093,1.0093,1.0099,1.0132,1.0144,1.0161,1.012,1.012,1.012,0,1.0323,1.031,1.0306,1.0282,1.0278,1.0274,1.0257,1.0248,1.0229,1.0217,1.0205,1.0186,1.0178,1.0162,1.0151,1.0146,1.0138,1.0127,1.0127,1.0124,1.0107,1.013,1.0166,1.0168,1.0123,1.0123,1.0123,0,1.0355,1.0336,1.0331,1.0323,1.0295,1.0293,1.028,1.0261,1.0252,1.0237,1.0231,1.0215,1.0206,1.0194,1.017,1.0161,1.0161,1.0144,1.0151,1.0151,1.0151,1.0151,1.0186,1.0147,1.0147,1.0147,1.0147,0,1.0377,1.0375,1.0345,1.0341,1.0339,1.0314,1.0312,1.0297,1.028,1.0273,1.025,1.0244,1.0213,1.0204,1.0185,1.0178,1.0174,1.0164,1.0159,1.0166,1.0167,1.016,1.0158,1.0148,1.0148,1.0148,1.0148,0,1.0411,1.039,1.0383,1.0358,1.0351,1.0351,1.0328,1.0324,1.0307,1.0299,1.0296,1.0269,1.0256,1.0232,1.0212,1.02,1.0196,1.0188,1.0203,1.02,1.0208,1.0208,1.0239,1.0242,1.0202,1.0203,1.0203,0,1.0426,1.0424,1.04,1.0394,1.0383,1.0375,1.0366,1.0342,1.0334,1.0313,1.0311,1.0297,1.0284,1.0265,1.0243,1.0228,1.0219,1.0231,1.0216,1.0223,1.0218,1.0218,1.0218,1.0234,1.0234,1.0235,1.0235,0,1.0455,1.0446,1.0435,1.0422,1.0413,1.0401,1.0387,1.0384,1.0357,1.0349,1.0337,1.0327,1.0308,1.0294,1.0275,1.0262,1.0244,1.024,1.0241,1.0247,1.0256,1.0251,1.0212,1.0239,1.0239,1.0238,1.0238,1.0238,1.048,1.0477,1.046,1.0449,1.0437,1.0426,1.0421,1.0404,1.0394,1.0377,1.0364,1.0352,1.0333,1.0307,1.0295,1.0285,1.0276,1.0278,1.0278,1.0278,1.0281,1.0259,1.0282,1.0282,1.0281,1.0281,1.0281,0,1.0507,1.0496,1.0486,1.0469,1.0461,1.0447,1.0431,1.0425,1.0416,1.04,1.0389,1.0375,1.0362,1.034,1.0324,1.0321,1.0312,1.0317,1.0317,1.0314,1.029,1.029,1.0325,1.0325,1.0325,1.0325,1.0325,1.0325,1.0521,1.0516,1.0505,1.0494,1.0481,1.0472,1.0464,1.0453,1.0441,1.0427,1.0416,1.0402,1.0384,1.0368,1.0354,1.0348,1.0343,1.0351,1.0342,1.032,1.0316,1.0312,1.0312,1.0351,1.0351,1.0367,1.0368,1.0368]},{"header":{"parameterUnit":"m.s-1","parameterCategory":1,"la1":30.2991,"la2":30.254,"lo1":-89.0895,"lo2":-89.0444,"dy":0.0017,"dx":0.0017,"nx":28,"ny":28,"refTime":"2024-08-09T09:00:00:Z","depth":0,"parameterNumber":3,"parameterNumberName":"V-component_of_WINDS"},"data":[0,0,0,0,0,0,0,0,0,0,0,0,0,0,0,0,0,0,0,0,0,0,0,0,0,0,0,0,0,0,0,0,0,0,0,0,0,0,0,0,0,0,0,0,0,0,0,0,0,0,0,0,0,0,0,0,0,0,-4.2946,-4.2947,0,-4.3062,-4.3064,-4.3065,-4.3025,-4.3022,-4.302,-4.3017,-4.3132,-4.3137,-4.3143,0,0,0,0,0,0,0,0,0,0,0,0,0,-4.2684,-4.2689,-4.2946,-4.2947,-4.2949,-4.3062,-4.3064,-4.3065,-4.3025,-4.3022,-4.3019,-4.3016,-4.313,-4.3137,-4.3143,0,0,0,0,0,0,0,0,0,0,0,0,0,-4.2799,-4.2691,-4.2945,-4.2942,-4.2943,-4.3062,-4.3064,-4.3066,-4.3026,-4.3022,-4.3018,-4.3015,-4.3128,-4.3136,-4.3144,-4.3271,0,0,-4.3169,-4.3172,0,0,0,0,0,0,0,0,-4.2793,-4.2809,-4.2941,-4.2943,-4.2944,-4.3025,-4.3014,-4.3134,-4.3027,-4.2994,-4.3017,-4.3013,-4.3099,-4.3109,-4.314,-4.3276,-4.3281,-4.317,-4.3175,-4.3178,-4.318,0,0,0,0,0,0,0,-4.2785,-4.2803,-4.2992,-4.2943,-4.2945,-4.2934,-4.2946,-4.3036,-4.3067,-4.2997,-4.2994,-4.3009,-4.3099,-4.3132,-4.3142,-4.3283,-4.3169,-4.3177,-4.3182,-4.3185,-4.3531,-4.3535,0,0,0,0,0,0,-4.2777,-4.2797,-4.2988,-4.2995,-4.2857,-4.2942,-4.2955,-4.3003,-4.3066,-4.3072,-4.3012,-4.3007,-4.312,-4.3133,-4.3146,-4.33,-4.3178,-4.3186,-4.319,-4.3526,-4.3532,-4.3536,0,0,0,0,0,0,-4.2771,-4.2794,-4.2983,-4.2896,-4.2919,-4.295,-4.3004,-4.3007,-4.304,-4.3077,-4.3082,-4.304,-4.3117,-4.3134,-4.3241,-4.3303,-4.3189,-4.3197,-4.3521,-4.3528,-4.3534,-4.3608,0,0,0,0,0,0,-4.2764,-4.2792,-4.2842,-4.2897,-4.2924,-4.3078,-4.3008,-4.3012,-4.3055,-4.3049,-4.3105,-4.311,-4.3116,-4.3229,-4.3249,-4.3312,-4.3203,-4.3516,-4.3524,-4.3532,-4.36,-4.3616,-4.363,0,0,0,0,0,-4.2755,-4.2857,-4.2845,-4.2868,-4.2986,-4.3081,-4.3096,-4.3102,-4.306,-4.3109,-4.3133,-4.3109,-4.3293,-4.324,-4.3262,-4.3329,-4.3512,-4.3522,-4.3531,-4.3593,-4.3613,-4.3629,0,0,0,0,0,0,-4.2806,-4.2864,-4.2851,-4.2974,-4.3024,-4.3074,-4.3137,-4.3122,-4.3183,-4.3174,-4.3177,-4.319,-4.33,-4.3325,-4.3265,-4.3456,-4.3396,-4.3411,-4.3435,-4.3454,-4.3469,-4.3461,-4.321,0,0,0,0,0,-4.2832,-4.2906,-4.2951,-4.3056,-4.3081,-4.3105,-4.3147,-4.3147,-4.3197,-4.3217,-4.3249,-4.3297,-4.3366,-4.3411,-4.3477,-4.3603,-4.3615,-4.366,-4.3675,-4.3687,-4.3699,-4.3769,-4.3789,-4.3568,-4.3568,-4.3568,0,0,-4.2886,-4.2926,-4.2972,-4.3067,-4.3105,-4.3181,-4.3123,-4.3204,-4.326,-4.3229,-4.3332,-4.3357,-4.3411,-4.3529,-4.3582,-4.3553,-4.3763,-4.3699,-4.3708,-4.3715,-4.3781,-4.3802,-4.382,-4.3575,-4.3573,-4.3572,0,0,-4.3022,-4.3061,-4.3152,-4.3192,-4.3252,-4.3267,-4.3289,-4.3343,-4.3359,-4.3463,-4.3441,-4.3507,-4.3625,-4.3665,-4.3701,-4.3854,-4.3834,-4.3875,-4.3953,-4.402,-4.4038,-4.4053,-4.4108,-4.4128,-4.3888,-4.3888,-4.3888,0,-4.3081,-4.3195,-4.3201,-4.3285,-4.3327,-4.3305,-4.3397,-4.3435,-4.3512,-4.3541,-4.3508,-4.3657,-4.3692,-4.3819,-4.3857,-4.3886,-4.3911,-4.3869,-4.4035,-4.4051,-4.4065,-4.4118,-4.4139,-4.3893,-4.3892,-4.3892,-4.3891,0,-4.3265,-4.3345,-4.3411,-4.3488,-4.3538,-4.3626,-4.3644,-4.3693,-4.3689,-4.3708,-4.3814,-4.3855,-4.3929,-4.3959,-4.3955,-4.4085,-4.4066,-4.4034,-4.3974,-4.4091,-4.4141,-4.4161,-4.3899,-4.3898,-4.3896,-4.3895,0,0,-4.3437,-4.3517,-4.3542,-4.3577,-4.3641,-4.3702,-4.3788,-4.3863,-4.3905,-4.3959,-4.4031,-4.4133,-4.4105,-4.4145,-4.4146,-4.4205,-4.4324,-4.4166,-4.4167,-4.4194,-4.4471,-4.4495,-4.4518,-4.4311,-4.4315,-4.4318,-4.4467,0,-4.3579,-4.3733,-4.3741,-4.3881,-4.3954,-4.3934,-4.401,-4.4057,-4.4077,-4.4141,-4.4162,-4.4234,-4.4191,-4.4216,-4.4274,-4.4298,-4.438,-4.4287,-4.4378,-4.4381,-4.4366,-4.4544,-4.4569,-4.4708,-4.4486,-4.4489,-4.4492,0,-4.3766,-4.3828,-4.3976,-4.4031,-4.4062,-4.413,-4.4199,-4.4261,-4.4313,-4.4323,-4.437,-4.4362,-4.445,-4.4387,-4.4508,-4.4445,-4.4482,-4.45,-4.4505,-4.4514,-4.4444,-4.4558,-4.4752,-4.4773,-4.4522,-4.452,-4.4518,0,-4.3877,-4.3997,-4.4101,-4.4132,-4.4199,-4.4247,-4.4277,-4.4326,-4.437,-4.443,-4.4459,-4.4527,-4.4565,-4.4618,-4.4628,-4.4581,-4.4749,-4.4687,-4.476,-4.476,-4.4796,-4.4793,-4.4999,-4.482,-4.4819,-4.4819,-4.4818,0,-4.4035,-4.4126,-4.4152,-4.4217,-4.4318,-4.4326,-4.4426,-4.4452,-4.4496,-4.4564,-4.455,-4.4614,-4.4624,-4.469,-4.4698,-4.4797,-4.4814,-4.4824,-4.4825,-4.4826,-4.4825,-4.485,-4.4841,-4.4824,-4.4823,-4.4822,-4.4821,0,-4.4176,-4.4197,-4.431,-4.4365,-4.438,-4.4453,-4.4499,-4.456,-4.4579,-4.4665,-4.4686,-4.4715,-4.4792,-4.4808,-4.4898,-4.4904,-4.5022,-4.5013,-4.5005,-4.5004,-4.5076,-4.5069,-4.5305,-4.5337,-4.5137,-4.5138,-4.514,0,-4.4276,-4.4346,-4.4409,-4.4455,-4.4487,-4.4561,-4.4607,-4.4617,-4.4665,-4.4731,-4.4784,-4.486,-4.4922,-4.5045,-4.5074,-4.5143,-4.5136,-4.5214,-4.5146,-4.5145,-4.5138,-4.5134,-4.5141,-4.5227,-4.5229,-4.5231,-4.5232,0,-4.4451,-4.4458,-4.4526,-4.4598,-4.4654,-4.4711,-4.4764,-4.4802,-4.4819,-4.4874,-4.4954,-4.5002,-4.5096,-4.5171,-4.5241,-4.5269,-4.5254,-4.5254,-4.5274,-4.5275,-4.5268,-4.5273,-4.5041,-4.5248,-4.5246,-4.5245,-4.5244,-4.5244,-4.4575,-4.4637,-4.4691,-4.4767,-4.4809,-4.486,-4.4921,-4.4948,-4.5016,-4.5094,-4.5096,-4.5183,-4.5234,-4.5326,-4.536,-4.5427,-4.5402,-4.5432,-4.5439,-4.5447,-4.5454,-4.5257,-4.544,-4.5439,-4.5439,-4.5438,-4.5438,0,-4.4749,-4.4784,-4.4854,-4.4931,-4.4991,-4.4973,-4.5032,-4.5083,-4.5161,-4.521,-4.5272,-4.5364,-4.5437,-4.5472,-4.5544,-4.5592,-4.5586,-4.561,-4.5607,-4.5614,-4.5471,-4.5447,-4.5613,-4.5613,-4.5613,-4.5613,-4.5613,-4.5613,-4.4847,-4.4952,-4.4966,-4.509,-4.5124,-4.5211,-4.5246,-4.5293,-4.5333,-4.5437,-4.5499,-4.5522,-4.5566,-4.5641,-4.5708,-4.5716,-4.5743,-4.5771,-4.5775,-4.5642,-4.5624,-4.5607,-4.5584,-4.5777,-4.5777,-4.5912,-4.5914,-4.5915]}]]